TimeCST,TemperatureF,Dew PointF,Humidity,Sea Level PressureIn,VisibilityMPH,Wind Direction,Wind SpeedMPH,Gust SpeedMPH,PrecipitationIn,Events,Conditions,WindDirDegrees,DateUTC
12:54 AM,19.9,14.0,78,29.89,7.0,WNW,9.2,-,N/A,,Mostly Cloudy,290,2013-01-06 06:54:00
1:26 AM,19.4,14.0,80,29.84,7.0,WNW,6.9,-,N/A,,Mostly Cloudy,290,2013-01-06 07:26:00
1:54 AM,19.9,14.0,78,29.90,7.0,West,4.6,-,N/A,,Overcast,280,2013-01-06 07:54:00
2:45 AM,21.2,15.8,80,29.86,7.0,NW,4.6,-,N/A,,Overcast,310,2013-01-06 08:45:00
2:54 AM,21.9,16.0,78,29.93,8.0,NW,4.6,-,N/A,,Overcast,310,2013-01-06 08:54:00
3:36 AM,23.0,19.4,86,29.87,5.0,NW,6.9,-,N/A,,Overcast,310,2013-01-06 09:36:00
3:54 AM,23.0,21.0,92,29.93,5.0,WNW,5.8,-,N/A,,Overcast,300,2013-01-06 09:54:00
4:26 AM,24.8,21.2,86,29.87,7.0,NW,9.2,-,N/A,,Overcast,310,2013-01-06 10:26:00
4:38 AM,24.8,21.2,86,29.88,2.0,WNW,6.9,-,0.00,Snow,Light Snow,300,2013-01-06 10:38:00
4:40 AM,24.8,21.2,86,29.88,1.8,WNW,8.1,-,0.00,Snow,Light Snow,300,2013-01-06 10:40:00
4:54 AM,24.1,21.0,88,29.94,1.5,WNW,6.9,-,0.00,Snow,Light Snow,300,2013-01-06 10:54:00
5:04 AM,24.8,21.2,86,29.88,3.0,WNW,8.1,-,0.00,Snow,Light Snow,300,2013-01-06 11:04:00
5:18 AM,24.8,21.2,86,29.89,4.0,WNW,6.9,-,0.00,Snow,Light Snow,300,2013-01-06 11:18:00
5:50 AM,23.0,19.4,86,29.90,10.0,NW,9.2,-,0.00,,Scattered Clouds,310,2013-01-06 11:50:00
5:54 AM,23.0,19.0,85,29.97,10.0,NW,8.1,-,0.00,,Scattered Clouds,310,2013-01-06 11:54:00
6:04 AM,23.0,19.4,86,29.91,10.0,NW,9.2,-,N/A,,Mostly Cloudy,310,2013-01-06 12:04:00
6:54 AM,23.0,19.0,85,30.01,10.0,NW,8.1,-,N/A,,Overcast,310,2013-01-06 12:54:00
7:54 AM,21.9,19.0,89,30.04,10.0,NW,3.5,-,N/A,,Overcast,310,2013-01-06 13:54:00
8:27 AM,24.8,19.4,80,30.00,10.0,NW,4.6,-,N/A,,Overcast,310,2013-01-06 14:27:00
8:54 AM,25.0,19.9,81,30.08,10.0,WNW,4.6,-,N/A,,Overcast,300,2013-01-06 14:54:00
9:54 AM,27.0,21.0,78,30.11,10.0,NW,8.1,-,N/A,,Overcast,310,2013-01-06 15:54:00
10:16 AM,26.6,21.2,80,30.05,10.0,WNW,10.4,-,N/A,,Overcast,300,2013-01-06 16:16:00
10:54 AM,28.0,21.0,75,30.13,10.0,NNW,9.2,-,N/A,,Overcast,330,2013-01-06 16:54:00
11:54 AM,28.0,19.9,72,30.12,10.0,NNW,4.6,-,N/A,,Mostly Cloudy,330,2013-01-06 17:54:00
12:54 PM,28.9,18.0,64,30.12,10.0,North,6.9,-,N/A,,Overcast,350,2013-01-06 18:54:00
1:54 PM,28.0,18.0,66,30.14,10.0,West,9.2,-,N/A,,Overcast,280,2013-01-06 19:54:00
2:54 PM,28.0,18.0,66,30.17,10.0,WNW,8.1,-,N/A,,Overcast,300,2013-01-06 20:54:00
3:54 PM,27.0,17.1,66,30.19,10.0,West,10.4,-,N/A,,Mostly Cloudy,270,2013-01-06 21:54:00
4:05 PM,26.6,17.6,69,30.13,10.0,West,8.1,-,N/A,,Partly Cloudy,270,2013-01-06 22:05:00
4:54 PM,24.1,16.0,71,30.22,10.0,West,9.2,-,N/A,,Clear,280,2013-01-06 22:54:00
5:54 PM,21.0,15.1,78,30.22,10.0,Calm,Calm,-,N/A,,Clear,0,2013-01-06 23:54:00
6:54 PM,21.0,15.1,78,30.23,10.0,SW,3.5,-,N/A,,Clear,220,2013-01-07 00:54:00
7:54 PM,19.9,15.1,81,30.23,10.0,Calm,Calm,-,N/A,,Clear,0,2013-01-07 01:54:00
8:54 PM,16.0,12.0,84,30.23,10.0,Calm,Calm,-,N/A,,Clear,0,2013-01-07 02:54:00
9:54 PM,16.0,12.9,88,30.23,10.0,South,3.5,-,N/A,,Clear,180,2013-01-07 03:54:00
10:54 PM,14.0,10.9,88,30.23,9.0,Calm,Calm,-,N/A,,Clear,0,2013-01-07 04:54:00
11:54 PM,12.0,9.0,88,30.21,8.0,ESE,3.5,-,N/A,,Clear,110,2013-01-07 05:54:00